IRIDIUM 33 DEB, 33953

Orbit data source: Space-Track

IRIDIUM 33 DEB, 33953 is space debris in LEO originally from a launch on Sun, 14 Sep 1997 UTC launched from the Tyuratam Missile And Space Complex (TTMTR). The debris from Iridium 33, an American commercial communications satellite, has been tracked extensively since its accidental collision with the defunct Russian satellite Cosmos 2251 in 2009. This event, occurring at high speed in low Earth orbit (LEO), generated thousands of pieces of space debris, significantly increasing the risk of further collisions. The Iridium 33 debris cloud has impacted space traffic management and orbital debris mitigation strategies, making it a subject of ongoing study in space situational awareness.

Loading next visibility...
Identifier
33953, 1997-051BN
Orbit
LEO
Country
Flag of USUS
Related business
Manufacturer
Unknown
Mission
Spacecraft
Bus & Motor
Unknown
Mass
Unknown
Launch date (UTC)
1997-09-14 (28 years ago)
Launch vehicle
Unknown
Launch site
Tyuratam Missile And Space Complex (TTMTR)
Object type
Payload
Rocket body
Debris
Shape & HBR
Unknown shape, 0.1 m
Radar Cross Section
Small (<0.1 m²)

Expand to show TLE details & history
Last TLE update: 9 hours ago

TLE from 9 hours ago
0 IRIDIUM 33 DEB
1 33953U 97051BN  26062.35303231  .00006486  00000-0  14578-2 0  9992
2 33953  86.3879  18.7559 0015233 178.0092 335.1570 14.56309544894761
Epoch: 2026-03-03T08:28Z
TLE epoch observation values (Epoch: 2026-03-03T08:28:21.991Z)
Latitude
26.88653°
Longitude
-91.29337°
Altitude
698.758 km
Speed
7.514 km/s
True Right ascension
13h 07m 43s
True Declination
26° 44' 49"
Sunlit
Object was in full shadow at epoch
Visualization orbit readout
Latitude
Unknown
Longitude
Unknown
Altitude
Unknown
Speed
Unknown
Apparent Right ascension
Unknown
Apparent Declination
Unknown
Sunlit
N/A
Visualization observer readout
Local Sidereal Time
20:48:36
Azimuth
Unknown
Elevation
Unknown
Doppler factor
Unknown
Orbital elements
Apogee altitude
712.834 km
Perigee altitude
691.264 km
Semi-major axis
7,080.186 km
Eccentricity
0.00152
Inclination
86.3879°
RAAN
18.7559°
Arg. of periapsis
178.0092°
True anomaly
335.08354°
Mean anomaly
335.157°
Eccentric anomaly
335.12028°
Mean motion
3.64314 °/min
Orbital period
98.82 mins
BSTAR
0.0014578
Loading maneuver chart data...
Computing Atmospheric mass density...

Documentation

Showing up to 5 results
|